Simultaneous Nadir Overpasses (SNOs) Predictions

Prediction of SNOs between AURA and NPP Satellite Orbit:

Table of predicted SNOs for the next 14.0 days since TLE Epoch: 2/11/2023
Index Date (AURA) Time (AURA) Lat,Lon (AURA) SZA (AURA ) Date (NPP) Time (NPP) Lat,Lon (NPP) SZA (NPP ) Distance(km) Time Diff (sec)
1 02/13/2023 11:27:17 79.28, -95.87 106.38 02/13/2023 11:26:22 79.29, -95.79 106.41 1.72 55
2 02/13/2023 12:16:39 -79.48, 73.07 73.92 02/13/2023 12:17:02 -79.47, 73.01 73.92 1.39 23
3 02/16/2023 03:43:44 79.30, 20.10 105.46 02/16/2023 03:43:16 79.28, 19.97 105.50 2.95 28
4 02/16/2023 04:33:03 -79.60,-170.15 75.01 02/16/2023 04:33:52 -79.60,-170.13 75.05 0.42 49
5 02/18/2023 19:13:50 -70.19, -58.46 65.33 02/18/2023 19:12:37 -70.56, -60.69 64.92 92.96 73
6 02/18/2023 20:00:07 79.41, 136.79 104.36 02/18/2023 20:00:07 79.41, 136.73 104.37 1.35 0
7 02/18/2023 20:46:55 -81.33, 3.95 84.43 02/18/2023 20:48:08 -80.58, 2.29 84.78 88.68 73
8 02/21/2023 11:27:10 -79.22, 83.80 76.32 02/21/2023 11:26:23 -79.21, 83.67 76.26 2.96 47
9 02/21/2023 12:16:28 79.52,-106.57 103.25 02/21/2023 12:16:58 79.52,-106.57 103.22 0.18 30
10 02/24/2023 03:43:29 -79.32,-159.62 77.44 02/24/2023 03:43:14 -79.32,-159.72 77.41 2.11 15



Historial Predications of SNOs between AURA and NPP
